Погода Арбна неделю

Аура, Мальта

01 - 07 сентября
  • 01сентября
    Сегодня
    +27°
    +30°
    Ясно и безоблачно
    ВремяПогодаТемператураВлажностьДавлениеВетер, м/сВероятность осадков
    02:00Ясно и безоблачно+29°C79 %753 мм8.7 м/с2 %
    05:00Ясно и безоблачно+28°C72 %753 мм5.7 м/с2 %
    08:00Ясно и безоблачно+28°C85 %753 мм4.9 м/с2 %
    11:00Ясно и безоблачно+29°C79 %755 мм2.7 м/с2 %
    14:00Ясно и безоблачно+29°C78 %755 мм0.9 м/с2 %
    17:00Ясно и безоблачно+30°C80 %754 мм3.0 м/с2 %
    20:00Ясно и безоблачно+29°C74 %754 мм3.8 м/с2 %
    23:00Ясно и безоблачно+28°C76 %755 мм0.2 м/с2 %
  • 02сентября
    Среда
    +27°
    +31°
    Ясно и безоблачно
    ВремяПогодаТемператураВлажностьДавлениеВетер, м/сВероятность осадков
    02:00Ясно и безоблачно+28°C77 %755 мм2.6 м/с2 %
    05:00Ясно и безоблачно+27°C75 %755 мм1.3 м/с2 %
    08:00Ясно и безоблачно+28°C75 %755 мм2.1 м/с2 %
    11:00Ясно и безоблачно+29°C78 %756 мм0.7 м/с2 %
    14:00Ясно и безоблачно+29°C78 %756 мм3.0 м/с2 %
    17:00Ясно и безоблачно+30°C72 %755 мм4.1 м/с2 %
    20:00Ясно и безоблачно+28°C77 %755 мм4.1 м/с2 %
    23:00Ясно и безоблачно+29°C71 %755 мм5.0 м/с2 %
  • 03сентября
    Четверг
    +27°
    +31°
    Ясно и безоблачно
    ВремяПогодаТемператураВлажностьДавлениеВетер, м/сВероятность осадков
    02:00Ясно и безоблачно+28°C77 %754 мм4.2 м/с2 %
    05:00Ясно и безоблачно+28°C77 %754 мм4.3 м/с2 %
    08:00Ясно и безоблачно+27°C80 %754 мм2.6 м/с2 %
    11:00Ясно и безоблачно+28°C79 %755 мм1.3 м/с2 %
    14:00Ясно и безоблачно+30°C71 %754 мм3.1 м/с2 %
    17:00Ясно и безоблачно+30°C73 %753 мм3.7 м/с2 %
    20:00Ясно и безоблачно+28°C68 %753 мм1.7 м/с2 %
    23:00Ясно и безоблачно+28°C79 %754 мм2.9 м/с2 %
  • 04сентября
    Пятница
    +26°
    +30°
    Ясно и безоблачно
    ВремяПогодаТемператураВлажностьДавлениеВетер, м/сВероятность осадков
    02:00Ясно и безоблачно+28°C79 %753 мм6.0 м/с2 %
    05:00Ясно и безоблачно+27°C71 %753 мм5.3 м/с2 %
    08:00Ясно и безоблачно+28°C70 %754 мм7.0 м/с2 %
    11:00Ясно и безоблачно+29°C71 %756 мм5.6 м/с4 %
    14:00Ясно и безоблачно+30°C70 %755 мм4.6 м/с2 %
    17:00Ясно и безоблачно+29°C67 %755 мм3.4 м/с2 %
    20:00Ясно и безоблачно+28°C65 %755 мм2.0 м/с2 %
    23:00Ясно и безоблачно+28°C65 %756 мм1.4 м/с2 %
  • 05сентября
    Суббота
    +26°
    +30°
    Ясно и безоблачно
    ВремяПогодаТемператураВлажностьДавлениеВетер, м/сВероятность осадков
    02:00Ясно и безоблачно+27°C71 %756 мм2.4 м/с2 %
    05:00Ясно и безоблачно+27°C74 %756 мм3.8 м/с2 %
    08:00Ясно и безоблачно+27°C74 %757 мм3.7 м/с2 %
    11:00Ясно и безоблачно+29°C64 %758 мм3.1 м/с2 %
    14:00Ясно и безоблачно+29°C61 %758 мм3.2 м/с2 %
    17:00Ясно и безоблачно+30°C64 %757 мм0.6 м/с2 %
    20:00Ясно и безоблачно+28°C67 %757 мм2.0 м/с2 %
    23:00Ясно и безоблачно+28°C66 %757 мм2.5 м/с2 %
  • 06сентября
    Воскресенье
    +27°
    +30°
    Ясно и безоблачно
    ВремяПогодаТемператураВлажностьДавлениеВетер, м/сВероятность осадков
    02:00Ясно и безоблачно+27°C71 %757 мм2.9 м/с2 %
    08:00Ясно и безоблачно+27°C83 %757 мм2.6 м/с2 %
    14:00Ясно и безоблачно+29°C79 %758 мм3.1 м/с2 %
    20:00Ясно и безоблачно+28°C59 %757 мм3.3 м/с2 %
  • 07сентября
    Понедельник
    +28°
    +30°
    Ясно и безоблачно
    ВремяПогодаТемператураВлажностьДавлениеВетер, м/сВероятность осадков
    02:00Ясно и безоблачно+28°C74 %757 мм2.5 м/с2 %
    08:00Ясно и безоблачно+28°C74 %757 мм3.3 м/с2 %
    14:00Ясно и безоблачно+29°C71 %757 мм3.0 м/с2 %
    20:00Ясно и безоблачно+29°C72 %756 мм3.5 м/с2 %
Мы используем cookies
Соглашаюсь